Flag for Germany Weather past 2 weeks in Bad Neuenahr-Ahrweiler, Rhineland-Palatinate, Germany

Now
60 °F

Partly sunny.


Feels Like: 60 °F
Forecast: 46 / 70 °F
Wind: 3 mph from Northeast

Location: Bonn-Hangelar


UV Index: 3 (Moderate)

Visibility: 31 mi


Pressure: 29.64 "Hg

Humidity: 57%

Dew point: 45 °F

Location of Bad Neuenahr-AhrweilerLocation

Historic Weather in Bad Neuenahr-Ahrweiler

°F

Bad Neuenahr-Ahrweiler temperature yesterday

Maximum temperature yesterday: 65 °F (at 2:00 PM)
Minimum temperature yesterday: 44 °F (at 6:00 AM)
Average temperature yesterday: 56 °F

Past Weeks' High & Low Weather Summary

 TemperatureHumidityPressure
High67 °F (Apr 7, 5:00 PM)99% (Apr 12, 9:00 AM)30.44 "Hg (Apr 12, 9:00 AM)
Low32 °F (Apr 16, 6:00 AM)29% (Apr 17, 4:00 PM)29.65 "Hg (Apr 20, 5:00 PM)
Average50 °F72%30.08 "Hg
* Reported Apr 6 11:00 AM — Apr 21 11:00 AM, Bad Neuenahr-Ahrweiler, Weather by CustomWeather, © 2014

Note: Actual official high and low records may vary slightly from our data, if they occured in-between our weather recording intervals... More about our weather records

Advertising

Historic Weather Conditions — Data for Previous 24 hours

 ConditionsComfort  
Time TempWeatherWind HumidityBarometerVisibility
11:00 AM
Apr 21
58 °FPartly sunny.2 mph66%29.65 "Hg31 mi
10:00 AM56 °FScattered clouds.2 mph66%29.67 "Hg31 mi
9:00 AM54 °FScattered clouds.2 mph72%29.67 "Hg37 mi
8:00 AM47 °FPartly sunny.3 mph84%29.68 "Hg31 mi
7:00 AM42 °FPassing clouds.3 mph87%29.69 "Hg22 mi
6:00 AM44 °FPassing clouds.3 mph85%29.69 "Hg22 mi
5:00 AM44 °FClear.5 mph85%29.70 "Hg22 mi
4:00 AM44 °FPassing clouds.5 mph85%29.70 "Hg22 mi
3:00 AM48 °FClear.6 mph76%29.71 "Hg22 mi
2:00 AM46 °FClear.5 mph82%29.72 "Hg22 mi
1:00 AM50 °FClear.5 mph71%29.72 "Hg25 mi
12:00 AM51 °FClear.6 mph71%29.72 "Hg22 mi
11:00 PM
Apr 20
54 °FPassing clouds.5 mph63%29.70 "Hg22 mi
10:00 PM54 °FOvercast.5 mph68%29.70 "Hg22 mi
9:00 PM57 °FOvercast.3 mph61%29.68 "Hg25 mi
8:00 PM60 °FOvercast.3 mph58%29.67 "Hg25 mi
7:00 PM63 °FOvercast.3 mph48%29.65 "Hg25 mi
6:00 PM64 °FOvercast.6 mph48%29.65 "Hg22 mi
5:00 PM64 °FOvercast.6 mph47%29.65 "Hg22 mi
4:00 PM64 °FPartly sunny.6 mph51%29.66 "Hg19 mi
3:00 PM64 °FPartly sunny.8 mph50%29.67 "Hg19 mi
2:00 PM65 °FPartly sunny.9 mph51%29.68 "Hg19 mi
1:00 PM63 °FScattered clouds.9 mph53%29.69 "Hg16 mi
12:00 PM62 °FPassing clouds.12 mph60%29.70 "Hg12 mi
Weather by CustomWeather, © 2014

See weather overview